CW1988 Weather Reports


Display with metric or nautical units.
time (UTC)temp
F
wind
direction
speed
MPH
gust
MPH
rain 1hr
in
rain 24hr
in
rain mn
in
humidity
%
barometer
mb
20260505162914 55 181 1.0 1.0 0.00 0.00 0.00 43 1009.4
20260505162409 56 181 2.0 2.0 0.00 0.00 0.00 43 1009.3
20260505161906 55 181 0.0 0.0 0.00 0.00 0.00 41 1009.4
20260505161403 55 181 1.0 1.0 0.00 0.00 0.00 42 1009.3
20260505160900 55 181 1.0 1.0 0.00 0.00 0.00 41 1009.4
20260505160358 55 181 0.0 1.0 0.00 0.00 0.00 40 1009.4
20260505153337 55 180 0.0 0.0 0.00 0.00 0.00 38 1009.2
20260505152834 56 180 1.0 2.0 0.00 0.00 0.00 38 1009.3
20260505152331 56 181 0.0 0.0 0.00 0.00 0.00 38 1009.4
20260505151826 55 181 0.0 0.0 0.00 0.00 0.00 39 1009.3
20260505151323 56 181 0.0 1.0 0.00 0.00 0.00 41 1009.3
20260505150820 57 181 1.0 1.0 0.00 0.00 0.00 38 1009.3
20260505150317 59 181 1.0 1.0 0.00 0.00 0.00 35 1009.1
20260505140246 55 180 1.0 2.0 0.00 0.00 0.00 39 1009.8
20260505130210 48 181 1.0 1.0 0.00 0.00 0.00 50 1009.7
20260505124700 48 181 0.0 0.0 0.00 0.00 0.00 53 1009.7
20260505124157 48 181 0.0 0.0 0.00 0.00 0.00 53 1009.2
20260505123653 48 181 0.0 0.0 0.00 0.00 0.00 51 1009.0
20260505123150 48 181 0.0 0.0 0.00 0.00 0.00 51 1009.3
20260505122646 47 181 0.0 0.0 0.00 0.00 0.00 54 1009.7
20260505122143 47 181 0.0 0.0 0.00 0.00 0.00 55 1010.1
20260505121640 47 181 0.0 0.0 0.00 0.00 0.00 56 1010.0
20260505121137 47 181 0.0 0.0 0.00 0.00 0.00 56 1009.9
20260505120633 46 181 0.0 0.0 0.00 0.00 0.00 54 1009.5
20260505120129 46 181 0.0 0.0 0.00 0.00 0.00 53 1009.1
20260505115623 46 181 0.0 0.0 0.00 0.00 0.00 54 1008.9
20260505115121 45 181 0.0 0.0 0.00 0.00 0.00 54 1008.4
20260505114618 45 181 0.0 0.0 0.00 0.00 0.00 55 1008.4
20260505114114 44 181 0.0 0.0 0.00 0.00 0.00 54 1008.4
20260505113611 44 181 0.0 0.0 0.00 0.00 0.00 55 1008.0
20260505113107 44 182 0.0 0.0 0.00 0.00 0.00 57 1008.0
20260505112604 44 182 0.0 0.0 0.00 0.00 0.00 56 1008.2
20260505112102 44 182 0.0 0.0 0.00 0.00 0.00 57 1008.2
20260505111601 44 182 0.0 0.0 0.00 0.00 0.00 56 1008.5
20260505111057 44 182 0.0 0.0 0.00 0.00 0.00 57 1008.5
20260505110554 44 182 0.0 0.0 0.00 0.00 0.00 55 1008.6
20260505102027 46 182 0.0 0.0 0.00 0.00 0.00 51 1007.7
20260505101525 46 182 0.0 0.0 0.00 0.00 0.00 49 1007.6
20260505101021 46 182 0.0 0.0 0.00 0.00 0.00 49 1007.6
20260505100518 46 182 1.0 1.0 0.00 0.00 0.00 48 1007.2
20260505100015 46 182 0.0 0.0 0.00 0.00 0.00 48 1007.2
20260505095511 46 182 0.0 0.0 0.00 0.00 0.00 48 1007.4
20260505095008 46 182 0.0 0.0 0.00 0.00 0.00 48 1007.4
20260505094504 46 182 0.0 0.0 0.00 0.00 0.00 48 1007.7
20260505094000 47 182 0.0 0.0 0.00 0.00 0.00 48 1007.2
20260505093457 47 182 0.0 0.0 0.00 0.00 0.00 48 1007.3
20260505092954 47 182 0.0 0.0 0.00 0.00 0.00 49 1007.6
20260505092452 47 182 0.0 0.0 0.00 0.00 0.00 48 1007.4
20260505091949 47 182 0.0 0.0 0.00 0.00 0.00 48 1007.5
20260505091447 47 182 0.0 0.0 0.00 0.00 0.00 48 1007.3
20260505090945 47 182 0.0 0.0 0.00 0.00 0.00 48 1007.1
20260505090443 47 182 0.0 0.0 0.00 0.00 0.00 48 1006.8
20260505085939 47 182 0.0 0.0 0.00 0.00 0.00 49 1006.8
20260505085437 47 182 0.0 0.0 0.00 0.00 0.00 49 1006.6
20260505084936 47 182 0.0 0.0 0.00 0.00 0.00 49 1006.7
20260505084434 47 182 0.0 0.0 0.00 0.00 0.00 49 1006.5
20260505083931 47 182 0.0 0.0 0.00 0.00 0.00 49 1006.5
20260505083428 47 182 0.0 1.0 0.00 0.00 0.00 49 1006.3
20260505082924 47 182 0.0 0.0 0.00 0.00 0.00 49 1006.1
20260505082420 47 181 0.0 0.0 0.00 0.00 0.00 49 1006.0
20260505081918 48 181 0.0 0.0 0.00 0.00 0.00 49 1006.0
20260505081415 48 181 0.0 0.0 0.00 0.00 0.00 48 1005.8
20260505080911 48 182 0.0 0.0 0.00 0.00 0.00 48 1005.8
20260505080407 48 182 0.0 0.0 0.00 0.00 0.00 49 1005.3
20260505075902 48 182 0.0 0.0 0.00 0.00 0.00 49 1005.2
20260505075359 48 181 0.0 1.0 0.00 0.00 0.00 49 1005.2
20260505074857 49 182 0.0 0.0 0.00 0.00 0.00 50 1005.1
20260505074354 49 181 0.0 0.0 0.00 0.00 0.00 50 1005.3
20260505073851 49 182 0.0 0.0 0.00 0.00 0.00 48 1005.2
20260505073349 49 181 0.0 1.0 0.00 0.00 0.00 49 1005.0
20260505072846 50 182 0.0 0.0 0.00 0.00 0.00 50 1005.0
20260505072342 50 182 0.0 1.0 0.00 0.00 0.00 49 1005.1
20260505071838 50 181 1.0 1.0 0.00 0.00 0.00 49 1005.0
20260505071334 50 181 1.0 2.0 0.00 0.00 0.00 49 1005.1
20260505070833 50 181 1.0 2.0 0.00 0.00 0.00 49 1004.9
20260505070329 51 181 1.0 1.0 0.00 0.00 0.00 50 1004.8
20260505065824 51 181 0.0 1.0 0.00 0.00 0.00 49 1004.5
20260505065321 51 181 1.0 1.0 0.00 0.00 0.00 50 1004.5
20260505064818 51 181 1.0 1.0 0.00 0.00 0.00 49 1004.4
20260505064315 51 181 0.0 0.0 0.00 0.00 0.00 49 1004.3
20260505063814 52 182 0.0 0.0 0.00 0.00 0.00 49 1004.1
20260505063309 52 182 1.0 2.0 0.00 0.00 0.00 48 1004.1
20260505062806 52 181 1.0 1.0 0.00 0.00 0.00 49 1004.2
20260505062304 52 181 0.0 0.0 0.00 0.00 0.00 48 1004.2
20260505061800 53 181 0.0 1.0 0.00 0.00 0.00 49 1004.1
20260505061258 53 181 0.0 0.0 0.00 0.00 0.00 50 1004.1
20260505060755 53 181 0.0 0.0 0.00 0.00 0.00 50 1004.4
20260505060252 53 181 0.0 0.0 0.00 0.00 0.00 49 1004.3
20260505055747 54 181 0.0 0.0 0.00 0.00 0.00 49 1004.2
20260505055244 54 181 0.0 0.0 0.00 0.00 0.00 47 1004.0
20260505054741 54 181 0.0 0.0 0.00 0.00 0.00 47 1003.9
20260505054239 55 182 0.0 0.0 0.00 0.00 0.00 47 1004.1
20260505053737 55 182 0.0 2.0 0.00 0.00 0.00 46 1003.7
20260505053233 55 182 0.0 0.0 0.00 0.00 0.00 46 1003.5
20260505052731 56 182 1.0 1.0 0.00 0.00 0.00 45 1003.6
20260505052227 56 182 1.0 1.0 0.00 0.00 0.00 45 1003.1
20260505051725 56 182 2.0 2.0 0.00 0.00 0.00 44 1003.2
20260505051223 57 182 1.0 1.0 0.00 0.00 0.00 44 1003.2
20260505050720 57 182 0.0 0.0 0.00 0.00 0.00 42 1002.8
20260505050218 57 182 2.0 3.0 0.00 0.00 0.00 42 1002.8
20260505041643 59 182 1.0 1.0 0.00 0.00 0.00 38 1002.0
20260505041140 59 182 0.0 0.0 0.00 0.00 0.00 38 1002.1
20260505040636 60 181 0.0 0.0 0.00 0.00 0.00 39 1002.1
20260505040133 60 182 0.0 0.0 0.00 0.00 0.00 38 1001.8
20260505035630 60 182 0.0 0.0 0.00 0.00 0.00 38 1001.9
20260505035126 60 182 0.0 1.0 0.00 0.00 0.00 37 1001.7
20260505034623 60 182 0.0 0.0 0.00 0.00 0.00 37 1001.8
20260505034120 61 182 0.0 1.0 0.00 0.00 0.00 37 1001.9
20260505033616 61 182 0.0 0.0 0.00 0.00 0.00 37 1002.0
20260505033115 61 182 1.0 1.0 0.00 0.00 0.00 37 1002.2
20260505032612 61 182 0.0 1.0 0.00 0.00 0.00 38 1002.0
20260505032109 61 182 0.0 1.0 0.00 0.00 0.00 39 1001.9
20260505031607 61 182 0.0 0.0 0.00 0.00 0.00 39 1001.7
20260505031103 62 182 0.0 0.0 0.00 0.00 0.00 37 1001.5
20260505030600 62 182 0.0 0.0 0.00 0.00 0.00 36 1001.2
20260505030055 62 182 1.0 1.0 0.00 0.00 0.00 37 1001.0
20260505025551 62 182 0.0 0.0 0.00 0.00 0.00 38 1000.6
20260505025051 62 182 1.0 1.0 0.00 0.00 0.00 37 1000.9
20260505024547 62 182 0.0 0.0 0.00 0.00 0.00 39 1001.0
20260505024044 63 182 1.0 1.0 0.00 0.00 0.00 39 1000.9
20260505023541 63 182 0.0 0.0 0.00 0.00 0.00 39 1001.0
20260505023039 63 182 1.0 1.0 0.00 0.00 0.00 40 1001.0
20260505022536 63 182 1.0 2.0 0.00 0.00 0.00 41 1000.9
20260505022033 63 182 0.0 0.0 0.00 0.00 0.00 41 1000.6
20260505021529 64 182 0.0 0.0 0.00 0.00 0.00 41 1000.6
20260505021027 64 182 0.0 0.0 0.00 0.00 0.00 40 1000.4
20260505020526 64 182 1.0 1.0 0.00 0.00 0.00 40 1000.5
20260505020024 65 182 2.0 3.0 0.00 0.00 0.00 39 1000.4
20260505015520 65 182 0.0 1.0 0.00 0.00 0.00 40 1000.3
20260505015017 65 182 1.0 2.0 0.00 0.00 0.00 40 1000.0
20260505014514 66 182 0.0 1.0 0.00 0.00 0.00 40 1000.0
20260505014012 66 182 0.0 0.0 0.00 0.00 0.00 40 999.5
20260505013508 66 182 0.0 0.0 0.00 0.00 0.00 40 999.5
20260505013006 66 182 0.0 0.0 0.00 0.00 0.00 39 999.1
20260505012505 66 182 0.0 0.0 0.00 0.00 0.00 40 998.9
20260505012001 67 182 0.0 0.0 0.00 0.00 0.00 39 998.6
20260505011456 67 182 0.0 0.0 0.00 0.00 0.00 40 998.5
20260505010953 68 182 1.0 2.0 0.00 0.00 0.00 38 998.3
20260505010449 68 182 1.0 2.0 0.00 0.00 0.00 41 998.2
20260505005945 68 182 0.0 0.0 0.00 0.00 0.00 43 998.3
20260505005442 68 182 0.0 0.0 0.00 0.00 0.00 42 998.0
20260505004940 69 182 0.0 0.0 0.00 0.00 0.00 42 998.0
20260505004436 69 182 0.0 0.0 0.00 0.00 0.00 42 997.6
20260505003933 70 182 0.0 1.0 0.00 0.00 0.00 41 997.5
20260505003430 70 182 0.0 0.0 0.00 0.00 0.00 42 997.3
20260505002926 71 182 1.0 1.0 0.00 0.00 0.00 41 997.2
20260505002423 71 182 0.0 0.0 0.00 0.00 0.00 42 997.0
20260505001921 72 182 1.0 2.0 0.00 0.00 0.00 43 997.0
20260505001419 72 182 2.0 4.0 0.00 0.00 0.00 42 997.0
20260505000915 72 182 0.0 0.0 0.00 0.00 0.00 40 997.0
20260505000414 72 182 0.0 0.0 0.00 0.00 0.00 42 996.7
20260504235910 72 182 0.0 1.0 0.00 0.00 0.00 41 996.6
20260504235407 72 182 0.0 1.0 0.00 0.00 0.00 42 996.6
20260504234903 72 182 0.0 0.0 0.00 0.00 0.00 41 996.6
20260504234401 73 182 0.0 0.0 0.00 0.00 0.00 41 996.6
20260504233857 73 182 0.0 0.0 0.00 0.00 0.00 43 996.8
20260504233353 73 182 0.0 0.0 0.00 0.00 0.00 43 996.7
20260504232850 72 182 1.0 2.0 0.00 0.00 0.00 44 996.6
20260504232347 71 182 0.0 0.0 0.00 0.00 0.00 47 996.8
20260504231844 70 182 0.0 0.0 0.00 0.00 0.00 50 996.7
20260504231340 70 182 0.0 0.0 0.00 0.00 0.00 51 996.9
20260504230836 69 182 0.0 0.0 0.00 0.00 0.00 55 996.9
20260504230334 69 182 0.0 0.0 0.00 0.00 0.00 59 996.9
20260504225833 70 182 0.0 0.0 0.00 0.00 0.00 55 996.9
20260504225329 75 182 2.0 2.0 0.00 0.00 0.00 39 997.3
20260504224827 76 182 0.0 1.0 0.00 0.00 0.00 36 997.0
20260504224323 76 182 0.0 0.0 0.00 0.00 0.00 36 997.0
20260504223820 76 182 1.0 2.0 0.00 0.00 0.00 35 997.2
20260504223315 77 182 0.0 0.0 0.00 0.00 0.00 35 997.1
20260504222812 77 182 0.0 0.0 0.00 0.00 0.00 35 997.1
20260504222309 77 182 0.0 1.0 0.00 0.00 0.00 36 997.1
20260504221808 77 182 1.0 2.0 0.00 0.00 0.00 35 997.1
20260504221304 77 182 1.0 1.0 0.00 0.00 0.00 34 997.1
20260504220801 77 182 0.0 0.0 0.00 0.00 0.00 35 997.2
20260504220257 77 182 1.0 2.0 0.00 0.00 0.00 33 997.3
20260504215755 77 182 2.0 3.0 0.00 0.00 0.00 34 997.1
20260504215251 78 182 1.0 1.0 0.00 0.00 0.00 34 997.2
20260504214747 78 182 0.0 1.0 0.00 0.00 0.00 35 997.4
20260504214244 78 182 2.0 2.0 0.00 0.00 0.00 35 997.5
20260504213741 77 182 1.0 1.0 0.00 0.00 0.00 34 997.3
20260504213237 77 182 1.0 2.0 0.00 0.00 0.00 32 997.5
20260504212734 77 182 1.0 1.0 0.00 0.00 0.00 33 997.6
20260504212225 77 182 0.0 0.0 0.00 0.00 0.00 34 997.4
20260504211723 77 182 1.0 1.0 0.00 0.00 0.00 35 997.6
20260504211219 77 182 1.0 1.0 0.00 0.00 0.00 34 997.7
20260504210717 77 182 1.0 2.0 0.00 0.00 0.00 34 997.6
20260504210213 77 182 0.0 1.0 0.00 0.00 0.00 35 997.7
20260504205710 77 182 0.0 0.0 0.00 0.00 0.00 34 997.7
20260504205207 77 182 2.0 2.0 0.00 0.00 0.00 34 997.7
20260504204706 77 182 0.0 0.0 0.00 0.00 0.00 37 998.0
20260504204204 77 182 1.0 2.0 0.00 0.00 0.00 34 998.1
20260504203702 77 182 1.0 1.0 0.00 0.00 0.00 35 998.1
20260504203200 77 182 2.0 2.0 0.00 0.00 0.00 34 998.0
20260504202654 77 182 2.0 3.0 0.00 0.00 0.00 36 998.1
20260504202152 77 182 1.0 2.0 0.00 0.00 0.00 34 998.0
20260504201648 77 182 2.0 2.0 0.00 0.00 0.00 36 997.8
20260504201146 77 182 1.0 2.0 0.00 0.00 0.00 34 998.4
20260504200643 77 182 1.0 2.0 0.00 0.00 0.00 34 998.5
20260504200139 78 182 1.0 2.0 0.00 0.00 0.00 34 998.2
20260504195635 77 182 0.0 0.0 0.00 0.00 0.00 36 998.4
20260504195132 77 182 0.0 1.0 0.00 0.00 0.00 35 998.6
20260504194629 77 182 1.0 1.0 0.00 0.00 0.00 33 998.5
20260504194125 77 182 1.0 2.0 0.00 0.00 0.00 32 998.6
20260504193621 77 182 2.0 3.0 0.00 0.00 0.00 33 998.5
20260504193120 77 182 1.0 2.0 0.00 0.00 0.00 36 998.6
20260504192617 77 182 0.0 0.0 0.00 0.00 0.00 36 998.5
20260504192115 77 182 4.0 6.0 0.00 0.00 0.00 31 998.7
20260504191613 76 182 0.0 1.0 0.00 0.00 0.00 36 998.7
20260504191109 76 182 1.0 1.0 0.00 0.00 0.00 36 998.6
20260504190605 76 182 2.0 3.0 0.00 0.00 0.00 34 998.6
20260504185559 76 182 1.0 1.0 0.00 0.00 0.00 34 998.6
20260504185055 76 182 1.0 1.0 0.00 0.00 0.00 35 998.9
20260504184551 76 182 1.0 1.0 0.00 0.00 0.00 34 998.8
20260504184046 75 182 1.0 2.0 0.00 0.00 0.00 35 998.8
20260504183544 75 182 1.0 1.0 0.00 0.00 0.00 35 998.8
20260504183042 76 182 0.0 1.0 0.00 0.00 0.00 35 998.8
20260504182539 76 182 0.0 0.0 0.00 0.00 0.00 36 998.8
20260504182036 75 182 1.0 1.0 0.00 0.00 0.00 34 998.8
20260504181532 75 182 0.0 1.0 0.00 0.00 0.00 37 999.0
20260504181031 76 182 1.0 1.0 0.00 0.00 0.00 35 999.0
20260504180529 75 182 0.0 1.0 0.00 0.00 0.00 36 999.0
20260504180028 75 182 1.0 1.0 0.00 0.00 0.00 35 999.1
20260504175525 75 182 1.0 1.0 0.00 0.00 0.00 34 999.3
20260504175022 75 182 1.0 1.0 0.00 0.00 0.00 34 999.0
20260504174519 75 182 1.0 1.0 0.00 0.00 0.00 35 999.4
20260504174016 75 182 0.0 0.0 0.00 0.00 0.00 36 999.2
20260504173513 75 182 0.0 0.0 0.00 0.00 0.00 34 999.3
20260504173011 75 182 1.0 1.0 0.00 0.00 0.00 33 999.5
20260504172506 75 182 1.0 1.0 0.00 0.00 0.00 34 999.4
20260504172003 75 182 1.0 2.0 0.00 0.00 0.00 34 999.6
20260504171500 74 182 1.0 1.0 0.00 0.00 0.00 35 999.4
20260504170957 75 182 1.0 1.0 0.00 0.00 0.00 33 999.7
20260504170453 74 182 0.0 1.0 0.00 0.00 0.00 34 999.7